Location: Freistadt
(48.5112°N, 14.5013°E)
Time: 09:13:50
(UTC+02:00)

MOZHAYETS 4 - Pass Details

Date: 30 March 2023
Orbit: 657 x 675 km, 98.2° (Epoch: 03 June)

Event Time Altitude Azimuth Distance (km) Brightness Sun altitude
Exits shadow 03:47:49 36° 336° (NNW) 1,045 8.8 -27.2°
Drops below altitude 10° 03:50:34 10° 343° (NNW) 2,088 10.5 -26.9°
Sets 03:52:48 0° 345° (NNW) 3,007 11.4 -26.6°
